Location: ??????
(37.9189°N, 23.0086°E)
Time: 07:58:34
(UTC+00:00)

Daily predictions for brighter satellites

Satellite Brightness Start Highest point End
(mag) Time Altitude Azimuth Time Altitude Azimuth Time Altitude Azimuth
Cosmos 540 Rocket 3.6 16:28:56 10° N 16:33:54 51° ENE 16:38:50 10° SE
ATLAS 3B R/B 3.2 16:28:14 10° NNW 16:36:06 83° WSW 16:43:46 10° SSE
USA 32 4.4 16:31:14 10° N 16:36:29 75° W 16:41:41 10° S
Meteor 2-8 Rocket 4.4 16:32:34 10° S 16:38:39 73° E 16:44:44 10° NNE
Okean 1-7 Rocket 3.9 16:35:23 10° SSE 16:39:41 45° E 16:43:58 10° NNE
SL-4 R/B 4.2 16:37:15 10° NNW 16:40:02 16° NNE 16:42:50 10° NE
USA 281 3.2 16:34:23 10° SSE 16:40:54 77° ENE 16:47:29 10° NNW
ADEOS Rocket 4.1 16:35:20 10° SE 16:42:03 35° ENE 16:48:27 10° N
Gbstr 26 Del rocket 4.0 16:36:55 10° SSW 16:42:12 55° SE 16:48:43 10° ENE
CZ-4 R/B 3.3 16:41:19 10° E 16:42:33 11° ENE 16:43:48 10° NE
Cosmos 1954 Rocket 4.4 16:37:35 10° SSW 16:42:42 67° WNW 16:47:51 10° NNE
GP-B 3.1 16:38:47 10° SSE 16:43:08 66° E 16:47:30 10° N
BlueWalker 3 4.0 16:41:08 10° W 16:44:04 21° NNW 16:47:00 10° NNE
Meteor 2-21 Rocket 4.5 16:38:04 10° N 16:44:10 89° E 16:50:16 10° S
Cosmos 1763 Rocket 3.5 16:40:24 10° NNW 16:45:29 85° WSW 16:50:33 10° SSE
Cosmos 2233 Rocket 4.0 16:40:31 10° S 16:46:48 79° E 16:53:08 10° N
Meteor 2-3 Rocket 4.1 16:43:57 10° SSE 16:49:27 46° E 16:54:56 10° NNE
NOAA 6 4.1 16:45:49 10° SSE 16:50:58 87° ENE 16:56:11 10° NNW
ERS-2 1.3 16:51:46 10° S 16:53:04 37° WSW 16:54:24 10° NNW
TRACE 4.4 16:52:15 10° NNE 16:55:47 71° E 16:59:18 10° S
COSMO-SKYMED 1 3.5 16:53:24 10° N 16:57:39 53° WNW 17:01:51 10° SSW
ATLAS 5 CENTAUR R/B 2.4 16:52:33 10° NNW 16:57:41 52° NE 17:03:57 10° SE
Cosmos 1980 Rocket 3.3 16:53:31 10° N 16:57:52 22° NE 17:01:47 12° ESE
Cosmos 1656 4.0 16:53:21 10° NNW 16:58:55 70° WSW 17:04:21 10° SSE
Cosmos 2292 Rocket 4.0 16:57:43 10° N 17:02:12 60° E 17:08:05 10° SSE
Cosmos 1741 Rocket 4.2 16:57:10 10° S 17:02:17 51° ESE 17:07:24 10° NNE
CZ-4B R/B 4.3 16:59:26 10° ESE 17:03:24 22° ENE 17:07:24 10° NNE
ADEOS 3.5 16:58:31 10° SSE 17:03:38 64° ENE 17:08:48 10° N
USA 267 3.3 16:57:12 10° SE 17:03:46 86° SW 17:10:21 10° NW
Cosmos 2360 4.1 17:00:27 10° NNW 17:06:10 74° ENE 17:11:49 10° SSE
Cosmos 1933 3.8 17:06:39 10° N 17:10:24 38° E 17:14:06 10° SSE
Cosmos 1862 3.9 17:07:40 10° SSE 17:11:07 32° E 17:14:35 10° NNE
SL-08 R/B 3.6 17:11:11 10° N 17:15:57 71° WNW 17:20:35 10° SSW
Cosmos 1464 Rocket 4.3 17:11:52 10° SSE 17:17:40 42° E 17:23:26 10° NNE
PAYLOAD B 4.5 17:18:45 10° SE 17:23:59 46° ENE 17:29:13 10° N
YAOGAN 1 2.6 17:20:12 10° S 17:24:30 82° WSW 17:28:49 10° NNW
USA 229 DEB 4.0 17:17:47 10° NNW 17:25:24 79° ENE 17:33:32 10° SE
USA 229 4.0 17:17:53 10° NNW 17:25:31 78° ENE 17:33:39 10° SE
Cosmos 1833 Rocket 3.9 17:20:37 10° SW 17:25:55 42° WNW 17:31:17 10° N
Cosmos 2082 Rocket 2.2 17:23:23 10° S 17:28:51 58° ESE 17:34:22 10° NNE
Cosmos 1437 Rocket 3.7 17:26:08 10° SSW 17:29:57 49° W 17:33:46 10° N
OAO 3 Rocket 3.4 17:27:13 10° WSW 17:32:04 62° S 17:34:23 29° ESE
Cosmos 1812 Rocket 3.7 17:28:43 10° N 17:33:03 76° W 17:37:22 10° S
Cosmos 1697 Rocket 2.7 17:28:01 10° NNW 17:33:43 89° WSW 17:39:22 10° SSE
Cosmos-2242 4.0 17:30:38 10° NNW 17:34:49 49° W 17:38:58 10° SSW
COSMOS 2406 3.2 17:30:03 10° S 17:35:34 59° ESE 17:41:09 10° NNE
CZ-4B DEB 4.1 17:30:40 10° SSE 17:36:05 80° ENE 17:41:33 10° N
Resurs 1-3 3.7 17:34:18 11° SSE 17:38:21 50° ENE 17:42:35 10° N
CZ-4B R/B 3.0 17:34:24 10° S 17:38:23 77° WSW 17:42:36 10° NNW
Cosmos 1515 3.5 17:35:51 10° N 17:39:21 54° E 17:40:08 43° SE
Cosmos 1544 2.9 17:42:03 10° SSW 17:45:04 66° W 17:48:06 10° N
SPOT 1/Viking Rocket 3.7 17:42:40 25° SE 17:45:13 45° ENE 17:50:06 10° N
SL-24 R/B - RUBIN 2 4.4 17:40:49 10° SW 17:46:18 73° WNW 17:52:33 10° NNE
Meteor 1-26 Rocket 4.0 17:41:01 10° N 17:46:26 76° E 17:51:54 10° SSE
IRIDIUM 106 4.2 17:41:47 10° SSE 17:46:54 62° E 17:52:03 10° N
Cosmos 1072 Rocket 4.3 17:40:50 10° S 17:46:57 81° E 17:53:04 10° N
Lacrosse 5 4.3 17:48:04 10° WNW 17:51:06 16° NNW 17:54:09 10° NNE
Okean O Rocket 3.0 17:55:08 24° NNE 17:55:08 24° NNE 17:57:14 10° N
Elektron 3 4.1 17:51:32 10° NNW 17:53:52 55° N 17:53:52 55° N
Cosmos 2221 2.3 17:50:35 10° N 17:54:47 64° E 17:55:17 58° ESE
Resurs 01 Rocket 3.5 17:58:16 17° NNE 17:58:16 17° NNE 17:59:28 10° N
Nadezhda 4 Rocket 3.9 17:50:37 10° N 17:56:46 58° E 18:02:42 11° SSE
GEOS 3 Rocket 3.6 17:54:34 33° SE 17:57:01 73° NE 18:02:22 10° NNW
SJ-6B 2.5 17:57:32 49° S 17:58:27 84° WSW 18:02:07 10° NNW
Cosmos 1782 4.4 17:56:39 10° NNW 18:00:13 35° W 18:03:46 10° SSW
H-2A R/B 3.8 17:56:48 10° S 17:58:35 18° SSE 17:58:35 18° SSE
SJ 16-02 1.5 17:59:17 10° S 18:02:48 54° SSE 18:02:48 54° SSE
Cosmos 968 Rocket 3.8 17:59:58 10° SSW 18:05:10 65° WNW 18:10:25 10° NNE
Meteor 2-6 Rocket 4.3 18:03:23 10° N 18:09:08 60° E 18:10:06 52° ESE
Cosmos 2151 4.4 18:05:48 10° S 18:07:33 25° S 18:07:33 25° S
CSL-04 Rocket 3.7 18:13:08 57° NE 18:13:08 57° NE 18:18:04 10° N
CZ-4 R/B 2.1 18:15:04 29° SSW 18:16:43 49° W 18:20:35 10° NNW
Gblst 52 Del rocket 4.0 18:13:53 10° SW 18:19:18 70° SE 18:19:18 70° SE
SL-4 R/B 3.4 18:15:40 10° NW 18:18:47 34° N 18:18:47 34° N
OAO 1 Rocket 4.5 18:17:33 10° W 18:22:40 65° S 18:22:40 65° S
DMSP 5D-2 F-14 4.5 18:23:02 75° SE 18:23:28 83° ENE 18:28:56 10° NNW
ADEOS Rocket 4.4 18:19:50 10° S 18:27:13 48° W 18:34:18 10° NNW
Atlas Centaur 2 3.9 18:29:35 10° SSW 18:30:24 14° SSW 18:30:24 14° SSW
Cosmos 2369 3.9 18:35:06 10° NNW 18:40:42 66° WSW 18:41:03 64° SW
ATLAS 5 CENTAUR R/B 4.3 18:37:03 10° WNW 18:41:40 26° WSW 18:46:57 10° SSW
Cosmos 1980 Rocket 2.9 18:36:42 10° NNW 18:42:06 50° WSW 18:43:38 39° SSW
CZ-4B R/B 4.0 18:40:14 21° SSW 18:43:34 46° W 18:48:47 10° NNW
SL-16 R/B 4.0 18:43:32 10° N 18:45:31 21° N 18:45:31 21° N
